Date String (YYYY-MM-DD hh:mm:ss) UTC,Instrument flags,Ambient pressure (hPa),Sample flow (lpm),Bypass flow (lpm),Sample temperature (°C),Ambient temperature (°C),ASC tube jacket temperature (°C),LED temperature (°C),Box temperature (°C),Sample RH (%),Span deviation,Mass concentration (μg/m³),Mass concentration (μg/m³),Mass concentration (μg/m³)
DateTimeUTC,F1_M11,P_M11,Q1_M11,Q2_M11,T1_M11,T2_M11,T3_M11,T4_M11,T5_M11,U1_M11,ZSPAN_M11,X2_M11,X0_M11,X1_M11
2022-04-19 20:00:00,,0813.5,5.02,0.00,29.4,28.6,00.0,38.3,31.2,05.9,0000.0,0004.42,0012.82,0002.33
2022-04-19 20:01:00,,0813.5,4.99,0.00,29.4,28.6,00.0,38.3,31.2,05.8,0000.0,0004.40,0012.90,0002.33
2022-04-19 20:02:00,,0813.8,5.00,0.00,29.4,28.6,00.0,38.3,31.2,05.7,0000.0,0004.36,0012.93,0002.32
2022-04-19 20:03:00,,0813.6,4.99,0.00,29.4,28.6,00.0,38.3,31.2,05.7,0000.0,0004.33,0012.91,0002.32
2022-04-19 20:04:00,,0813.5,5.01,0.00,29.4,28.7,00.0,38.3,31.3,05.7,0000.0,0004.31,0012.82,0002.32
2022-04-19 20:05:00,,0813.5,4.99,0.00,29.5,28.7,00.0,38.3,31.3,05.6,0000.0,0004.31,0012.10,0002.31
2022-04-19 20:06:00,,0813.5,5.01,0.00,29.5,28.7,00.0,38.3,31.3,05.8,0000.0,0004.25,0012.46,0002.31
2022-04-19 20:07:00,,0813.7,5.01,0.00,29.5,28.7,00.0,38.3,31.3,05.7,0000.0,0004.21,0012.36,0002.30
2022-04-19 20:08:00,,0813.6,4.98,0.00,29.5,28.7,00.0,38.4,31.3,05.8,0000.0,0004.19,0011.27,0002.29
2022-04-19 20:09:00,,0813.6,5.02,0.00,29.5,28.7,00.0,38.4,31.3,05.7,0000.0,0004.20,0010.65,0002.32
2022-04-19 20:10:00,,0813.7,4.99,0.00,29.5,28.8,00.0,38.4,31.3,05.8,0000.0,0004.32,0010.89,0002.37
2022-04-19 20:11:00,,0813.5,5.00,0.00,29.6,28.8,00.0,38.4,31.4,06.0,0000.0,0004.33,0010.92,0002.39
2022-04-19 20:12:00,,0813.5,5.00,0.00,29.6,28.8,00.0,38.4,31.3,05.8,0000.0,0004.30,0010.75,0002.39
2022-04-19 20:13:00,,0813.5,4.98,0.00,29.6,28.8,00.0,38.4,31.4,05.8,0000.0,0004.31,0010.64,0002.40
2022-04-19 20:14:00,,0813.6,5.01,0.00,29.6,28.8,00.0,38.4,31.4,05.7,0000.0,0004.38,0010.85,0002.42
2022-04-19 20:15:00,,0813.5,5.00,0.00,29.6,28.8,00.0,38.5,31.4,05.9,0000.0,0004.44,0011.48,0002.44
2022-04-19 20:16:00,,0813.6,4.99,0.00,29.6,28.9,00.0,38.5,31.4,06.0,0000.0,0004.50,0011.42,0002.45
2022-04-19 20:17:00,,0813.5,5.01,0.00,29.7,28.9,00.0,38.5,31.4,06.3,0000.0,0004.55,0010.97,0002.47
2022-04-19 20:18:00,,0813.5,4.98,0.00,29.7,28.9,00.0,38.5,31.4,06.2,0000.0,0004.57,0011.10,0002.49
2022-04-19 20:19:00,,0813.5,5.01,0.00,29.7,28.9,00.0,38.5,31.5,05.9,0000.0,0004.59,0011.25,0002.49
2022-04-19 20:20:00,,0813.4,5.01,0.00,29.7,28.9,00.0,38.5,31.5,05.9,0000.0,0004.55,0011.27,0002.47
2022-04-19 20:21:00,,0813.5,4.99,0.00,29.7,29.0,00.0,38.5,31.5,05.8,0000.0,0004.42,0011.08,0002.46
2022-04-19 20:22:00,,0813.4,5.00,0.00,29.7,29.0,00.0,38.6,31.5,05.9,0000.0,0004.40,0011.16,0002.44
2022-04-19 20:23:00,,0813.5,4.99,0.00,29.8,29.0,00.0,38.6,31.6,05.8,0000.0,0004.51,0011.62,0002.44
2022-04-19 20:24:00,,0813.4,4.99,0.00,29.8,29.0,00.0,38.6,31.6,05.6,0000.0,0004.58,0011.68,0002.45
2022-04-19 20:25:00,,0813.3,5.02,0.00,29.8,29.0,00.0,38.6,31.6,05.8,0000.0,0004.55,0011.50,0002.44
2022-04-19 20:26:00,,0813.3,4.99,0.00,29.8,29.1,00.0,38.6,31.6,05.9,0000.0,0004.55,0010.96,0002.45
2022-04-19 20:27:00,,0813.4,4.99,0.00,29.8,29.1,00.0,38.6,31.6,06.1,0000.0,0004.55,0011.09,0002.48
2022-04-19 20:28:00,,0813.3,5.01,0.00,29.8,29.1,00.0,38.6,31.6,06.0,0000.0,0004.55,0011.19,0002.49
2022-04-19 20:29:00,,0813.1,4.98,0.00,29.8,29.1,00.0,38.7,31.6,05.4,0000.0,0004.61,0011.40,0002.50
2022-04-19 20:30:00,,0813.3,5.01,0.00,29.8,29.1,00.0,38.7,31.6,05.4,0000.0,0004.63,0011.58,0002.50
2022-04-19 20:31:00,,0813.2,5.01,0.00,29.8,29.1,00.0,38.7,31.6,05.6,0000.0,0004.64,0011.49,0002.50
2022-04-19 20:32:00,,0813.1,4.99,0.00,29.9,29.1,00.0,38.7,31.6,05.4,0000.0,0004.71,0011.59,0002.51
2022-04-19 20:33:00,,0813.0,5.02,0.00,29.9,29.1,00.0,38.7,31.6,05.5,0000.0,0004.75,0011.77,0002.54
2022-04-19 20:34:00,,0812.9,4.98,0.00,29.9,29.1,00.0,38.7,31.6,05.5,0000.0,0004.67,0012.21,0002.56
2022-04-19 20:35:00,,0813.0,5.01,0.00,29.9,29.1,00.0,38.7,31.6,05.4,0000.0,0004.64,0012.86,0002.58
2022-04-19 20:36:00,,0812.9,5.00,0.00,29.9,29.1,00.0,38.7,31.7,05.3,0000.0,0004.64,0012.97,0002.57
2022-04-19 20:37:00,,0813.0,4.99,0.00,29.9,29.1,00.0,38.7,31.7,05.4,0000.0,0004.60,0013.70,0002.58
2022-04-19 20:38:00,,0813.0,5.01,0.00,29.9,29.1,00.0,38.7,31.7,05.5,0000.0,0004.58,0013.63,0002.56
2022-04-19 20:39:00,,0812.9,4.99,0.00,29.9,29.1,00.0,38.8,31.7,05.3,0000.0,0004.57,0013.72,0002.57
2022-04-19 20:40:00,,0813.0,5.00,0.00,29.9,29.1,00.0,38.8,31.7,05.3,0000.0,0004.55,0013.67,0002.60
2022-04-19 20:41:00,,0813.0,5.01,0.00,29.9,29.1,00.0,38.8,31.7,05.4,0000.0,0004.53,0013.42,0002.61
2022-04-19 20:42:00,,0813.0,4.98,0.00,29.9,29.1,00.0,38.8,31.7,05.4,0000.0,0004.57,0013.80,0002.62
2022-04-19 20:43:00,,0812.8,5.01,0.00,29.9,29.1,00.0,38.8,31.7,05.4,0000.0,0004.55,0014.15,0002.61
2022-04-19 20:44:00,,0813.0,5.00,0.00,29.9,29.1,00.0,38.8,31.7,05.4,0000.0,0004.53,0014.27,0002.61
2022-04-19 20:45:00,,0813.1,5.01,0.00,29.9,29.1,00.0,38.8,31.7,05.5,0000.0,0004.49,0013.69,0002.62
2022-04-19 20:46:00,,0812.9,4.99,0.00,29.9,29.1,00.0,38.8,31.7,05.4,0000.0,0004.48,0013.23,0002.63
2022-04-19 20:47:00,,0812.8,5.00,0.00,29.9,29.1,00.0,38.8,31.7,05.3,0000.0,0004.48,0013.08,0002.65
2022-04-19 20:48:00,,0812.9,5.00,0.00,29.9,29.1,00.0,38.8,31.7,05.4,0000.0,0004.50,0012.73,0002.67
2022-04-19 20:49:00,,0812.9,4.99,0.00,29.9,29.1,00.0,38.8,31.7,05.5,0000.0,0004.48,0012.69,0002.69
2022-04-19 20:50:00,,0812.7,5.01,0.00,29.9,29.1,00.0,38.8,31.7,05.5,0000.0,0004.43,0012.52,0002.67
2022-04-19 20:51:00,,0812.7,4.99,0.00,29.9,29.1,00.0,38.8,31.7,05.7,0000.0,0004.43,0013.23,0002.66
2022-04-19 20:52:00,,0812.8,5.00,0.00,29.9,29.2,00.0,38.8,31.7,05.7,0000.0,0004.40,0013.06,0002.67
2022-04-19 20:53:00,,0812.8,5.01,0.00,29.9,29.2,00.0,38.8,31.7,05.7,0000.0,0004.34,0012.70,0002.67
2022-04-19 20:54:00,,0812.8,4.98,0.00,29.9,29.2,00.0,38.8,31.7,05.7,0000.0,0004.32,0012.41,0002.66
2022-04-19 20:55:00,,0812.8,5.00,0.00,30.0,29.2,00.0,38.8,31.7,05.8,0000.0,0004.34,0012.09,0002.66
2022-04-19 20:56:00,,0812.8,5.00,0.00,30.0,29.2,00.0,38.8,31.7,05.9,0000.0,0004.47,0012.38,0002.67
2022-04-19 20:57:00,,0812.9,5.01,0.00,30.0,29.2,00.0,38.8,31.7,05.8,0000.0,0004.48,0012.64,0002.64
2022-04-19 20:58:00,,0812.8,5.00,0.00,30.0,29.3,00.0,38.9,31.7,05.6,0000.0,0004.49,0012.80,0002.66
2022-04-19 20:59:00,,0812.8,5.00,0.00,30.0,29.3,00.0,38.9,31.8,05.5,0000.0,0004.49,0012.44,0002.66
